CW9687 Weather Reports


Display with metric or nautical units.
time (UTC)temp
F
wind
direction
speed
MPH
gust
MPH
rain 1hr
in
rain 24hr
in
rain mn
in
humidity
%
barometer
mb
20260502205522 63 279 5.0 9.0 0.00 0.00 0.00 73 1014.0
20260502205021 62 323 2.0 8.0 0.00 0.00 0.00 72 1014.2
20260502204521 62 325 2.0 9.0 0.00 0.00 0.00 72 1014.1
20260502204020 62 300 2.0 9.0 0.00 0.00 0.00 73 1014.2
20260502203519 62 8 3.0 9.0 0.00 0.00 0.00 74 1014.2
20260502203018 62 287 3.0 9.0 0.00 0.00 0.00 74 1014.2
20260502202517 62 288 3.0 9.0 0.00 0.00 0.00 74 1014.3
20260502202016 62 298 4.0 9.0 0.00 0.00 0.00 75 1014.4
20260502201515 61 333 0.0 7.0 0.00 0.00 0.00 75 1014.4
20260502201014 61 300 3.0 8.0 0.00 0.00 0.00 75 1014.5
20260502200516 61 300 4.0 8.0 0.00 0.00 0.00 76 1014.5
20260502200059 61 267 3.0 9.0 0.00 0.00 0.00 76 1014.5
20260502195551 61 268 3.0 9.0 0.00 0.00 0.00 76 1014.6
20260502195051 61 306 3.0 8.0 0.00 0.00 0.00 76 1014.7
20260502194550 61 267 4.0 9.0 0.00 0.00 0.00 77 1014.8
20260502194048 60 299 5.0 9.0 0.00 0.00 0.00 77 1014.8
20260502193547 60 357 0.0 7.0 0.00 0.00 0.00 78 1014.9
20260502193047 60 275 0.0 7.0 0.00 0.00 0.00 78 1014.8
20260502192548 60 330 2.0 5.0 0.00 0.00 0.00 78 1014.9
20260502192044 59 331 0.0 5.0 0.00 0.00 0.00 79 1014.9
20260502191543 59 333 1.0 8.0 0.00 0.00 0.00 80 1014.9
20260502191042 59 327 2.0 6.0 0.00 0.00 0.00 80 1015.1
20260502190541 58 308 0.0 4.0 0.00 0.00 0.00 80 1015.2
20260502190032 58 240 0.0 4.0 0.00 0.00 0.00 80 1015.3
20260502185527 58 231 1.0 6.0 0.00 0.00 0.00 81 1015.4
20260502185027 58 270 0.0 8.0 0.00 0.00 0.00 82 1015.6
20260502184528 57 277 2.0 8.0 0.00 0.00 0.00 82 1015.5
20260502184025 57 285 2.0 8.0 0.00 0.00 0.00 82 1015.6
20260502183526 57 249 1.0 4.0 0.00 0.00 0.00 83 1015.6
20260502183024 57 160 1.0 4.0 0.00 0.00 0.00 84 1015.5
20260502182521 56 204 0.0 6.0 0.00 0.00 0.00 84 1015.5
20260502182020 56 181 1.0 3.0 0.00 0.00 0.00 84 1015.6
20260502181519 56 274 0.0 3.0 0.00 0.00 0.00 85 1015.6
20260502181022 56 275 0.0 5.0 0.00 0.00 0.00 85 1015.5
20260502180518 56 275 0.0 8.0 0.00 0.00 0.00 85 1015.5
20260502170503 55 321 3.0 6.0 0.00 0.00 0.00 87 1015.4
20260502164055 55 308 1.0 6.0 0.00 0.00 0.00 87 1015.1
20260502163553 55 350 0.0 3.0 0.00 0.00 0.00 87 1015.0
20260502163053 55 281 0.0 7.0 0.00 0.00 0.00 88 1015.0
20260502162552 55 281 2.0 7.0 0.00 0.00 0.00 88 1014.9
20260502162053 55 281 0.0 3.0 0.00 0.00 0.00 88 1015.0
20260502161558 55 281 0.0 6.0 0.00 0.00 0.00 88 1015.0
20260502161050 55 282 1.0 5.0 0.00 0.00 0.00 88 1015.0
20260502160550 55 268 1.0 4.0 0.00 0.00 0.00 88 1015.1
20260502152030 54 127 0.0 0.0 0.00 0.00 0.00 88 1014.9
20260502151530 54 53 0.0 0.0 0.00 0.00 0.00 88 1014.9
20260502151030 54 53 0.0 2.0 0.00 0.00 0.00 88 1014.9
20260502150530 54 337 0.0 2.0 0.00 0.00 0.00 88 1014.8
20260502130600 54 164 0.0 0.0 0.00 0.00 0.00 86 1014.3
20260502130104 54 164 0.0 0.0 0.00 0.00 0.00 86 1014.4
20260502123556 54 64 0.0 1.0 0.00 0.00 0.00 86 1014.0
20260502123101 54 64 0.0 1.0 0.00 0.00 0.00 86 1013.9
20260502122558 54 64 0.0 0.0 0.00 0.00 0.00 86 1013.7
20260502122056 54 64 0.0 1.0 0.00 0.00 0.00 86 1013.7
20260502121604 54 64 0.0 1.0 0.00 0.00 0.00 86 1013.7
20260502121056 54 64 0.0 1.0 0.00 0.00 0.00 86 1013.6
20260502120554 54 64 0.0 0.0 0.00 0.00 0.00 85 1013.5
20260502115558 54 64 0.0 3.0 0.00 0.00 0.00 85 1013.5
20260502115055 54 64 0.0 3.0 0.00 0.00 0.00 85 1013.5
20260502114554 54 64 0.0 3.0 0.00 0.00 0.00 85 1013.6
20260502114053 54 64 0.0 0.0 0.00 0.00 0.00 85 1013.6
20260502113556 54 64 0.0 2.0 0.00 0.00 0.00 85 1013.6
20260502113055 54 64 0.0 2.0 0.00 0.00 0.00 85 1013.6
20260502112551 54 64 0.0 2.0 0.00 0.00 0.00 85 1013.7
20260502112052 54 64 0.0 2.0 0.00 0.00 0.00 85 1013.6
20260502111558 54 64 0.0 2.0 0.00 0.00 0.00 85 1013.6
20260502111051 54 64 0.0 2.0 0.00 0.00 0.00 85 1013.7
20260502110551 54 359 0.0 0.0 0.00 0.00 0.00 85 1013.7
20260502110052 54 359 0.0 1.0 0.00 0.00 0.00 85 1013.6
20260502105551 54 359 0.0 1.0 0.00 0.00 0.00 85 1013.6
20260502105050 54 359 0.0 1.0 0.00 0.00 0.00 85 1013.6
20260502104551 54 359 0.0 1.0 0.00 0.00 0.00 84 1013.7
20260502104050 54 359 0.0 1.0 0.00 0.00 0.00 85 1013.6
20260502103550 54 359 0.0 1.0 0.00 0.00 0.00 84 1013.5
20260502103056 54 359 0.0 2.0 0.00 0.00 0.00 84 1013.5
20260502102549 54 359 0.0 3.0 0.00 0.00 0.00 84 1013.5
20260502102048 54 359 0.0 5.0 0.00 0.00 0.00 85 1013.5
20260502101606 54 359 0.0 5.0 0.00 0.00 0.00 84 1013.4
20260502101047 54 359 0.0 3.0 0.00 0.00 0.00 84 1013.4
20260502100546 54 359 0.0 3.0 0.00 0.00 0.00 84 1013.4
20260502091040 55 345 0.0 3.0 0.00 0.00 0.00 84 1013.7
20260502090540 55 345 0.0 3.0 0.00 0.00 0.00 84 1013.8
20260502071529 56 23 0.0 2.0 0.00 0.00 0.00 83 1014.5
20260502071030 56 23 0.0 2.0 0.00 0.00 0.00 83 1014.6
20260502070531 56 23 0.0 4.0 0.00 0.00 0.00 83 1014.6
20260502070028 56 22 0.0 4.0 0.00 0.00 0.00 83 1014.6
20260502065527 56 21 0.0 4.0 0.00 0.00 0.00 83 1014.7
20260502065027 56 21 0.0 4.0 0.00 0.00 0.00 83 1014.7
20260502064530 56 9 0.0 5.0 0.00 0.00 0.00 83 1014.8
20260502064026 56 2 1.0 5.0 0.00 0.00 0.00 83 1014.7
20260502063527 56 16 0.0 4.0 0.00 0.00 0.00 83 1014.7
20260502063025 56 17 0.0 3.0 0.00 0.00 0.00 83 1014.7
20260502062525 56 17 0.0 5.0 0.00 0.00 0.00 83 1014.7
20260502062025 56 19 1.0 5.0 0.00 0.00 0.00 83 1014.8
20260502061524 56 4 0.0 5.0 0.00 0.00 0.00 83 1014.7
20260502061024 56 354 0.0 5.0 0.00 0.00 0.00 83 1014.8
20260502060524 56 31 0.0 5.0 0.00 0.00 0.00 83 1014.8
20260502060025 56 17 0.0 3.0 0.00 0.00 0.00 83 1014.9
20260502055524 56 17 0.0 6.0 0.00 0.00 0.00 82 1014.8
20260502055023 56 19 0.0 6.0 0.00 0.00 0.00 82 1014.9
20260502054522 56 42 0.0 4.0 0.00 0.00 0.00 82 1014.9
20260502054022 56 42 0.0 6.0 0.00 0.00 0.00 82 1015.0
20260502053523 56 44 0.0 8.0 0.00 0.00 0.00 82 1014.9
20260502053027 56 47 1.0 8.0 0.00 0.00 0.00 82 1014.9
20260502052522 56 50 0.0 4.0 0.00 0.00 0.00 82 1014.9
20260502052022 56 40 0.0 4.0 0.00 0.00 0.00 82 1015.0
20260502051522 56 37 0.0 3.0 0.00 0.00 0.00 82 1015.0
20260502051021 56 37 0.0 5.0 0.00 0.00 0.00 82 1015.0
20260502050521 56 40 0.0 5.0 0.00 0.00 0.00 82 1015.0
20260502050015 56 3 0.0 6.0 0.00 0.00 0.00 82 1015.0
20260502045515 56 37 0.0 5.0 0.00 0.00 0.00 82 1014.9
20260502045016 56 42 0.0 3.0 0.00 0.00 0.00 82 1015.0
20260502044515 56 43 0.0 5.0 0.00 0.00 0.00 82 1015.0
20260502044016 56 13 0.0 5.0 0.00 0.00 0.00 82 1015.0
20260502043514 56 36 0.0 4.0 0.00 0.00 0.00 82 1015.0
20260502043017 56 35 0.0 4.0 0.00 0.00 0.00 83 1015.0
20260502042514 56 30 0.0 2.0 0.00 0.00 0.00 82 1015.0
20260502042014 56 29 0.0 3.0 0.00 0.00 0.00 83 1015.1
20260502041514 56 29 0.0 3.0 0.00 0.00 0.00 83 1015.0
20260502041013 56 254 0.0 1.0 0.00 0.00 0.00 83 1014.9
20260502040517 56 254 0.0 1.0 0.00 0.00 0.00 83 1014.9
20260502040012 56 254 0.0 0.0 0.00 0.00 0.00 83 1014.8
20260502035509 56 254 0.0 0.0 0.00 0.00 0.00 83 1014.7
20260502035006 56 253 0.0 0.0 0.00 0.00 0.00 83 1014.7
20260502034507 56 253 0.0 1.0 0.00 0.00 0.00 83 1014.7
20260502034007 56 254 0.0 1.0 0.00 0.00 0.00 83 1014.6
20260502033506 56 253 0.0 3.0 0.00 0.00 0.00 83 1014.6
20260502033007 56 254 0.0 3.0 0.00 0.00 0.00 83 1014.5
20260502032505 56 253 0.0 3.0 0.00 0.00 0.00 83 1014.4
20260502032005 56 253 0.0 3.0 0.00 0.00 0.00 82 1014.5
20260502031505 56 253 0.0 3.0 0.00 0.00 0.00 82 1014.4
20260502031005 56 254 0.0 3.0 0.00 0.00 0.00 82 1014.3
20260502030505 56 254 0.0 3.0 0.00 0.00 0.00 82 1014.1
20260502030043 56 252 1.0 4.0 0.00 0.00 0.00 82 1014.2
20260502025543 56 102 0.0 4.0 0.00 0.00 0.00 82 1014.2
20260502025042 56 200 1.0 4.0 0.00 0.00 0.00 81 1014.0
20260502024543 56 291 0.0 4.0 0.00 0.00 0.00 81 1014.1
20260502024042 56 256 0.0 8.0 0.00 0.00 0.00 81 1014.0
20260502023543 57 204 1.0 8.0 0.00 0.00 0.00 81 1014.0
20260502023042 57 195 1.0 6.0 0.00 0.00 0.00 80 1013.9
20260502022543 57 213 2.0 6.0 0.00 0.00 0.00 80 1013.8
20260502022041 57 207 1.0 6.0 0.00 0.00 0.00 80 1013.7
20260502021541 57 229 0.0 5.0 0.00 0.00 0.00 79 1013.8
20260502021040 57 219 0.0 6.0 0.00 0.00 0.00 79 1013.6
20260502020540 58 219 3.0 6.0 0.00 0.00 0.00 79 1013.6
20260502020034 58 266 1.0 5.0 0.00 0.00 0.00 79 1013.6
20260502015537 58 276 2.0 6.0 0.00 0.00 0.00 79 1013.6
20260502015034 58 212 1.0 8.0 0.00 0.00 0.00 78 1013.5
20260502014535 58 271 1.0 8.0 0.00 0.00 0.00 78 1013.5
20260502014033 59 255 0.0 8.0 0.00 0.00 0.00 78 1013.5
20260502013534 59 275 2.0 8.0 0.00 0.00 0.00 78 1013.4
20260502013033 59 271 2.0 6.0 0.00 0.00 0.00 77 1013.4
20260502012533 59 256 1.0 8.0 0.00 0.00 0.00 77 1013.4
20260502012032 59 220 0.0 9.0 0.00 0.00 0.00 77 1013.4
20260502011554 59 271 3.0 9.0 0.00 0.00 0.00 76 1013.4
20260502011032 59 241 1.0 8.0 0.00 0.00 0.00 76 1013.4
20260502010531 60 300 5.0 9.0 0.00 0.00 0.00 76 1013.3
20260502010026 60 280 4.0 10.0 0.00 0.00 0.00 76 1013.4
20260502005525 60 279 6.0 10.0 0.00 0.00 0.00 76 1013.4
20260502005025 60 296 2.0 10.0 0.00 0.00 0.00 76 1013.4
20260502004538 60 269 5.0 10.0 0.00 0.00 0.00 75 1013.4
20260502004024 60 307 3.0 9.0 0.00 0.00 0.00 75 1013.5
20260502003528 60 300 3.0 9.0 0.00 0.00 0.00 76 1013.4
20260502003027 60 251 3.0 9.0 0.00 0.00 0.00 75 1013.4
20260502002524 60 266 2.0 9.0 0.00 0.00 0.00 75 1013.5
20260502002028 60 277 2.0 9.0 0.00 0.00 0.00 75 1013.4
20260502001524 60 275 4.0 11.0 0.00 0.00 0.00 75 1013.3
20260502001024 61 239 6.0 11.0 0.00 0.00 0.00 75 1013.3
20260502000523 61 309 4.0 10.0 0.00 0.00 0.00 74 1013.4
20260502000017 61 309 4.0 11.0 0.00 0.00 0.00 74 1013.4
20260501235521 61 292 5.0 11.0 0.00 0.00 0.00 74 1013.6
20260501235017 61 242 2.0 10.0 0.00 0.00 0.00 74 1013.6
20260501234516 61 271 3.0 10.0 0.00 0.00 0.00 73 1013.6
20260501234016 62 291 4.0 11.0 0.00 0.00 0.00 73 1013.6
20260501233516 62 279 4.0 11.0 0.00 0.00 0.00 73 1013.6
20260501233017 62 298 3.0 10.0 0.00 0.00 0.00 73 1013.6
20260501232518 62 298 3.0 10.0 0.00 0.00 0.00 73 1013.6
20260501232018 62 289 2.0 14.0 0.00 0.00 0.00 72 1013.7
20260501231529 62 287 5.0 14.0 0.00 0.00 0.00 73 1013.7
20260501231016 62 299 6.0 11.0 0.00 0.00 0.00 72 1013.7
20260501230516 62 303 3.0 11.0 0.00 0.00 0.00 72 1013.7
20260501230055 62 271 4.0 10.0 0.00 0.00 0.00 73 1013.7
20260501225552 62 265 5.0 11.0 0.00 0.00 0.00 72 1013.8
20260501225052 62 302 6.0 11.0 0.00 0.00 0.00 72 1014.0
20260501224559 62 293 6.0 11.0 0.00 0.00 0.00 72 1014.0
20260501224051 62 319 3.0 10.0 0.00 0.00 0.00 72 1014.1
20260501223553 62 305 5.0 11.0 0.00 0.00 0.00 72 1014.2
20260501223051 62 257 6.0 12.0 0.00 0.00 0.00 71 1014.3
20260501222549 63 296 7.0 12.0 0.00 0.00 0.00 71 1014.4
20260501222051 63 285 4.0 12.0 0.00 0.00 0.00 72 1014.4
20260501221606 63 284 5.0 12.0 0.00 0.00 0.00 71 1014.5
20260501221050 63 295 6.0 12.0 0.00 0.00 0.00 71 1014.7
20260501220545 63 295 5.0 11.0 0.00 0.00 0.00 72 1014.7
20260501220043 63 327 3.0 14.0 0.00 0.00 0.00 71 1014.6
20260501215538 63 307 6.0 13.0 0.00 0.00 0.00 71 1014.7
20260501215036 63 285 6.0 12.0 0.00 0.00 0.00 71 1014.8
20260501214536 63 304 4.0 12.0 0.00 0.00 0.00 72 1014.7
20260501214037 63 258 5.0 11.0 0.00 0.00 0.00 71 1014.8
20260501213535 63 298 4.0 14.0 0.00 0.00 0.00 71 1014.7
20260501213040 63 293 6.0 14.0 0.00 0.00 0.00 71 1014.8
20260501212535 63 284 5.0 13.0 0.00 0.00 0.00 71 1014.7
20260501212035 64 281 6.0 14.0 0.00 0.00 0.00 71 1014.7
20260501211535 64 273 6.0 14.0 0.00 0.00 0.00 71 1014.7
20260501211035 64 303 5.0 13.0 0.00 0.00 0.00 71 1014.7
20260501210534 64 275 7.0 12.0 0.00 0.00 0.00 71 1014.7
20260501210027 64 275 6.0 11.0 0.00 0.00 0.00 71 1014.7